Regional Weather Roundup
Issued by NWS

Home | Current Version | Previous Version | Graphics & Text | Print | Product List | Glossary On
Versions: 1 2 3 4 5 6 7 8 9 10 11 12 13 14 15 16 17 18 19 20 21 22 23 24 25 26 27 28 29 30 31 32 33 34 35 36 37 38 39 40 41 42 43 44 45 46 47 48 49 50
000
ASUS43 KLOT 061803
RWRIL

ILLINOIS REGIONAL WEATHER ROUNDUP
NATIONAL WEATHER SERVICE CHICAGO/ROMEOVILLE IL
1200 PM CST SAT FEB 06 2016

NOTE: "FAIR" INDICATES FEW OR NO CLOUDS BELOW 12,000 FEET WITH NO
SIGNIFICANT WEATHER AND/OR OBSTRUCTIONS TO VISIBILITY.

* THESE STATIONS ARE NOT UNDER NWS QUALITY CONTROL. THEY ALSO MAY NOT
  REPORT WEATHER SUCH AS PRECIPITATION OR FOG.

ILZ001-002-007-009-015-016-024-061900-
NORTHWEST ILLINOIS

CITY           SKY/WX    TMP DP  RH WIND       PRES   REMARKS
MOLINE         SUNNY     41  24  51 SW12      30.21F
6HR MIN TEMP:  27; 6HR MAX TEMP:  41;

STERLING*      SUNNY     39  27  60 SW8       30.19F WCI  34
SAVANNA*       SUNNY     37  25  60 SW12      30.20F WCI  30
$$

ILZ003-004-008-010-011-017-018-061900-
NORTH CENTRAL ILLINOIS

CITY           SKY/WX    TMP DP  RH WIND       PRES   REMARKS
ROCKFORD       MOSUNNY   37  27  67 W12       30.21F WCI  29
6HR MIN TEMP:  24; 6HR MAX TEMP:  37;

FREEPORT*      MOSUNNY   33  27  77 SW13      30.21F WCI  24
DE KALB*       PTSUNNY   37  31  78 SW10      30.21F WCI  30
$$

ILZ005-006-012>014-019>023-061900-
NORTHEAST ILLINOIS

CITY           SKY/WX    TMP DP  RH WIND       PRES   REMARKS
CHICAGO-OHARE  PTSUNNY   34  26  72 SW15      30.21F WCI  24
6HR MIN TEMP:  24; 6HR MAX TEMP:  35;

CHICAGO-MIDWAY PTSUNNY   37  25  61 W14       30.23F WCI  28
6HR MIN TEMP:  26; 6HR MAX TEMP:  38;

AURORA         PTSUNNY   37  28  70 W10       30.22F WCI  30
6HR MIN TEMP:  24; 6HR MAX TEMP:  38;

LANSING*       MOSUNNY   37  27  66 SW13      30.24F WCI  29
WAUKEGAN       CLOUDY    33  26  75 SW14G23   30.18F WCI  23
6HR MIN TEMP:  24; 6HR MAX TEMP:  34;

DUPAGE AIRPORT PTSUNNY   36  26  67 W14       30.21F WCI  27
6HR MIN TEMP:  21; 6HR MAX TEMP:  36;

WHEELING       CLOUDY    35  26  69 W10       30.21F WCI  27
6HR MIN TEMP:  25; 6HR MAX TEMP:  35;

NORTHERLY ISL    N/A     36  24  62 W12         N/A  WCI  28
$$

LMZ740>746-061900-
SOUTHERN LAKE MICHIGAN

STATION/POSITION SKY/WX   TEMP    WIND        PRES    VSBY  WAVE
                          AIR SEA DIR/SP/G                  HT/PER
                          (F)     (DEG/KT/KT) (MB)    (MI)  (FT/S)
HARRISON CRIB              34     240/  7/  9   N/A
BURNHAM HARBOR             36     240/  9/ 14   N/A
CALUMET HARBOR             35     210/  9/ 13 1023.7F
BURNS HARBOR               34     210/ 12/ 16 1025.1F
MICHIGAN CITY              33     190/ 13/ 14   N/A
$$

ILZ025>027-034>036-040-047-049-050-058-095>099-061900-
WEST-CENTRAL ILLINOIS

CITY           SKY/WX    TMP DP  RH WIND       PRES   REMARKS
QUINCY         SUNNY     44  25  47 SW6       30.24F
MACOMB*        SUNNY     43  27  52 W7        30.26F
$$

ILZ028>032-037-038-041>044-048-051>054-059>061-061900-
CENTRAL ILLINOIS

CITY           SKY/WX    TMP DP  RH WIND       PRES   REMARKS
BLOOMINGTON    SUNNY     42  30  62 S12       30.25F
DECATUR        SUNNY     43  29  57 S8        30.27F
PEORIA         SUNNY     41  27  57 S8        30.25F
6HR MIN TEMP:  23; 6HR MAX TEMP:  41;

LINCOLN*       SUNNY     42  31  67 S8        30.26F
SPRINGFIELD    SUNNY     47  28  47 S8        30.26F
6HR MIN TEMP:  27; 6HR MAX TEMP:  47;

TAYLORVILLE    NOT AVBL
$$

ILZ033-039-045-046-055>057-062-063-061900-
EAST-CENTRAL ILLINOIS

CITY           SKY/WX    TMP DP  RH WIND       PRES   REMARKS
CHAMPAIGN      SUNNY     41  30  65 S10       30.26F
MATTOON        SUNNY     42  27  55 S12       30.27F
$$

ILZ079-100>102-061900-
SOUTHWEST ILLINOIS

CITY           SKY/WX    TMP DP  RH WIND       PRES   REMARKS
ALTON          SUNNY     45  25  45 SW6       30.30F
BELLEVILLE     SUNNY     49  26  41 VRB1      30.29F
CAHOKIA*       SUNNY     49  26  41 W7        30.29F
SPARTA*        SUNNY     51  25  36 CALM      30.32F
$$

ILZ064>066-069>071-074>076-080>082-084>086-088>090-092>094-061900-
SOUTH-CENTRAL ILLINOIS

CITY           SKY/WX    TMP DP  RH WIND       PRES   REMARKS
CARBONDALE     SUNNY     51  21  30 VRB3      30.32F
6HR MIN TEMP:  21; 6HR MAX TEMP:  51;

MARION         SUNNY     54  25  32 W5        30.33F
MT. VERNON     SUNNY     48  30  49 S3        30.32F
CENTRALIA*     SUNNY     47  31  53 W5        30.31F
SALEM*         SUNNY     49  29  46 SW7       30.31F
$$

ILZ067-068-072-073-078-083-087-091-061900-
SOUTHEAST ILLINOIS

CITY           SKY/WX    TMP DP  RH WIND       PRES   REMARKS
LAWRENCEVILLE  SUNNY     45  29  53 VRB5      30.33F
HARRISBURG*    SUNNY     50  27  40 CALM      30.33F
ROBINSON*      SUNNY     43  27  52 S3        30.33F
CARMI*         SUNNY     48  30  50 SE3       30.32F
$$

ABBREVIATIONS USED IN REMARKS
   TC - TEMPERATURE IN CELSIUS
  WCI - WIND CHILL INDEX
   HX - HEAT INDEX
  VSB - VISIBILITY
$$




USA.gov is the U.S. government's official web portal to all federal, state and local government web resources and services.